E1763 Weather Reports


time (UTC)temp
C
wind
direction
speed
KPH
gust
KPH
rain 1hr
cm
rain 24hr
cm
rain mn
cm
humidity
%
barometer
mb
20260906133104 11 51 0.0 0.0 0.00 0.00 0.00 95 1009.5
20260906131559 11 51 0.0 0.0 0.00 0.00 0.00 95 1009.3
20260906130055 11 51 0.0 0.0 0.00 0.00 0.00 95 1009.3
20260906124553 11 334 0.0 0.0 0.00 0.00 0.00 95 1009.3
20260906123051 11 334 0.0 0.0 0.00 0.00 0.00 95 1009.3
20260906121551 11 334 0.0 0.0 0.00 0.00 0.00 95 1009.3
20260906120050 11 334 0.0 0.0 0.00 0.00 0.00 95 1009.1
20260906114550 11 334 0.0 0.0 0.00 0.00 0.00 95 1009.0
20260906113050 11 40 0.0 0.0 0.00 0.00 0.00 95 1009.0
20260906111547 11 133 0.0 0.0 0.00 0.00 0.00 95 1009.0
20260906110046 11 134 0.0 0.0 0.00 0.00 0.00 95 1008.9
20260906104543 11 134 0.0 0.0 0.00 0.03 0.00 95 1009.0
20260906103043 11 133 0.0 0.0 0.00 0.03 0.00 94 1009.0
20260906101542 11 134 0.0 0.0 0.00 0.03 0.00 94 1009.1
20260906100040 11 133 0.0 0.0 0.00 0.03 0.00 94 1009.1
20260906094539 11 134 0.0 0.0 0.00 0.03 0.00 94 1009.1
20260906093038 12 134 0.0 0.0 0.00 0.03 0.00 94 1009.1
20260906091536 12 133 0.0 0.0 0.00 0.03 0.00 94 1009.1
20260906090035 12 134 0.0 0.0 0.00 0.03 0.00 94 1009.2
20260906084533 12 134 0.0 0.0 0.00 0.03 0.00 94 1009.2
20260906083039 12 134 0.0 0.0 0.00 0.03 0.00 94 1009.3
20260906081536 12 170 0.0 0.0 0.00 0.03 0.00 94 1009.3
20260906080030 12 155 0.0 0.0 0.00 0.03 0.00 94 1009.3
20260906074528 12 155 0.0 0.0 0.00 0.03 0.00 94 1009.4
20260906073027 12 198 0.0 0.0 0.00 0.03 0.00 94 1009.4
20260906071526 12 217 0.0 0.0 0.00 0.03 0.00 94 1009.4
20260906070025 12 217 0.0 0.0 0.00 0.03 0.00 94 1009.4
20260906064533 12 240 0.0 0.0 0.00 0.03 0.03 94 1009.5
20260906063024 12 240 0.0 0.0 0.00 0.03 0.03 94 1009.6
20260906061523 12 240 0.0 0.0 0.00 0.03 0.03 93 1009.6
20260906060027 12 240 0.0 0.0 0.00 0.03 0.03 93 1009.9
20260906054522 12 265 0.0 0.0 0.00 0.03 0.03 93 1009.9
20260906053027 12 167 0.0 0.0 0.00 0.03 0.03 93 1010.1
20260906051530 12 220 0.0 0.0 0.00 0.03 0.03 92 1010.1
20260906050046 12 197 0.0 0.0 0.00 0.03 0.03 92 1010.2
20260906044520 12 197 0.0 0.0 0.00 0.03 0.03 91 1010.2
20260906043020 12 197 0.0 0.0 0.00 0.03 0.03 91 1010.1
20260906041519 12 198 0.0 0.0 0.00 0.03 0.03 89 1010.0
20260906040018 13 197 0.0 0.0 0.00 0.03 0.03 89 1010.0
20260906034523 13 198 0.0 0.0 0.00 0.03 0.03 88 1009.8
20260906033024 13 197 0.0 0.0 0.00 0.03 0.03 86 1009.6
20260906031519 14 197 0.0 0.0 0.00 0.03 0.03 84 1009.4
20260906030018 15 197 0.0 0.0 0.00 0.03 0.03 82 1009.3
20260906024515 16 197 0.0 0.0 0.00 0.03 0.03 79 1009.2
20260906023016 17 197 0.0 0.0 0.00 0.03 0.03 75 1009.2
20260906021516 17 258 0.0 0.0 0.00 0.03 0.03 73 1009.2
20260906020012 17 304 0.0 0.0 0.00 0.03 0.03 70 1009.3
20260906014511 18 355 0.0 0.0 0.00 0.03 0.03 66 1009.3
20260906013012 20 252 0.0 0.0 0.00 0.03 0.03 63 1009.2
20260906011510 20 340 0.0 0.0 0.00 0.03 0.03 60 1009.2
20260906010010 20 15 0.0 0.0 0.00 0.03 0.03 58 1009.1
20260906004507 21 15 0.0 0.0 0.00 0.03 0.03 60 1009.1
20260906003006 21 355 0.0 0.0 0.00 0.03 0.03 57 1009.1
20260906001604 22 241 0.0 0.0 0.00 0.03 0.03 57 1009.1
20260906000006 22 214 0.0 0.0 0.00 0.03 0.03 57 1009.0
20260905234504 21 255 0.0 0.0 0.00 0.03 0.03 56 1009.1
20260905233002 21 213 0.0 0.0 0.00 0.03 0.03 57 1009.0
20260905231502 21 244 0.0 0.0 0.00 0.03 0.03 59 1009.2
20260905230001 22 202 0.0 0.0 0.00 0.03 0.03 59 1009.3
20260905224606 23 233 0.0 0.0 0.00 0.03 0.03 59 1009.3
20260905223059 23 169 0.0 0.0 0.00 0.03 0.03 58 1009.4
20260905221600 23 261 0.0 0.0 0.00 0.03 0.03 57 1009.4
20260905220057 23 213 0.0 0.0 0.00 0.03 0.03 58 1009.3
20260905214605 23 217 0.0 0.0 0.00 0.03 0.03 56 1009.3
20260905213053 23 241 0.0 6.4 0.00 0.03 0.03 56 1009.2
20260905211551 23 261 0.0 9.7 0.00 0.03 0.03 58 1009.2
20260905210050 23 286 0.0 11.3 0.00 0.03 0.03 58 1009.2
20260905204548 23 243 0.0 0.0 0.00 0.03 0.03 60 1009.2
20260905203045 23 234 1.6 8.0 0.00 0.03 0.03 58 1009.2
20260905201542 23 222 0.0 0.0 0.00 0.03 0.03 63 1009.2
20260905200045 23 191 0.0 0.0 0.00 0.03 0.03 57 1009.3
20260905194534 21 221 0.0 0.0 0.00 0.03 0.03 66 1009.3
20260905193032 21 229 0.0 1.6 0.00 0.03 0.03 67 1009.4
20260905191531 21 262 0.0 0.0 0.00 0.03 0.03 68 1009.6
20260905190029 21 255 0.0 0.0 0.00 0.03 0.03 71 1009.6
20260905184532 19 191 0.0 1.6 0.00 0.03 0.03 77 1009.7
20260905183026 18 189 0.0 0.0 0.00 0.03 0.03 84 1009.9
20260905181517 17 190 0.0 0.0 0.00 0.03 0.03 88 1009.9
20260905180015 16 180 0.0 1.6 0.00 0.03 0.03 93 1009.9
20260905174525 15 271 0.0 0.0 0.00 0.03 0.03 96 1009.9
20260905173006 14 225 0.0 0.0 0.00 0.03 0.03 97 1009.9
20260905171506 13 206 0.0 0.0 0.00 0.03 0.03 97 1009.9
20260905170004 13 206 0.0 0.0 0.00 0.03 0.03 97 1009.9
20260905164503 12 233 0.0 0.0 0.00 0.03 0.03 96 1009.9
20260905163004 12 190 0.0 0.0 0.00 0.03 0.03 96 1009.8
20260905161502 12 28 0.0 0.0 0.00 0.03 0.03 96 1009.8
20260905160002 12 28 0.0 0.0 0.00 0.03 0.03 96 1009.9
20260905154502 11 28 0.0 0.0 0.00 0.03 0.03 96 1009.9
20260905153000 11 28 0.0 0.0 0.00 0.03 0.03 96 1009.8
20260905151600 11 28 0.0 0.0 0.00 0.03 0.03 96 1009.7
20260905150101 11 54 0.0 0.0 0.00 0.03 0.03 96 1009.6
20260905144558 11 52 0.0 0.0 0.00 0.03 0.03 96 1009.5
20260905143058 11 47 0.0 0.0 0.00 0.03 0.03 96 1009.6
20260905141612 11 32 0.0 0.0 0.00 0.03 0.03 96 1009.4
20260905134606 10 32 0.0 0.0 0.00 0.03 0.03 96 1009.3